Terminal Aerodrome Forecast
Issued by NWS

Home | Current Version | Previous Version | Text Only | Print | Product List | Glossary On
Versions: 1 2 3 4 5 6 7 8 9 10 11 12 13 14 15 16 17 18
000
FTUS43 KABR 110404 AAB
TAFPIR
TAF AMD
KPIR 110404Z 1104/1124 26010KT P6SM SCT200
     FM110500 29015G22KT P6SM SCT250
     FM110900 31025G35KT P6SM SCT250
     FM111500 32025G35KT P6SM OVC025
     FM112300 33015G25KT P6SM OVC025=

USA.gov is the U.S. government's official web portal to all federal, state and local government web resources and services.